^^
Station Historical Data
Daily Summary for January 26, 2018 Units:  Metric    English   Both
« Previous Day
Next Day »
Daily Weekly Monthly Yearly Custom
  High: Low: Average:
Temperature: -17.8 °C 17.9 °C 25.3 °C
Dew Point: -17.8 °C 2.4 °C 5.7 °C
Humidity: Humidity% 17% 30%
Wind Speed: 0km/h 0km/h 2.1km/h
Wind Gust: 0km/h - -
Wind- - SSW
Pressure: 0 hPa 1000.9 hPa -
Precipitation: 0 mm    
Historical Graphs
 
 
Tabular Data for January 26, 2018
Time Temperature Dew Point Pressure Wind Wind Speed Wind Gust Humidity Rainfall Rate (Hourly) solar Conditions
-17.8 °C -17.8 °C 0 hPa Calm     Humidity% 0 mm SolarRadiationWatts/m^2 W/m2 Conditions
00:00 22.5 °C 4.5 °C 1006 hPa Calm   3.2 km/h 31% 0 mm 0.0 W/m2
00:05 22.4 °C 4.9 °C 1006 hPa Calm   3.2 km/h 32% 0 mm 0.0 W/m2
00:10 22.3 °C 4.8 °C 1006 hPa East 1.4 km/h 6.4 km/h 32% 0 mm 0.0 W/m2
00:15 22.2 °C 4.7 °C 1006 hPa Calm   4.8 km/h 32% 0 mm 0.0 W/m2
00:21 22.1 °C 4.6 °C 1006 hPa North 1.4 km/h 3.2 km/h 32% 0 mm 0.0 W/m2
00:26 22 °C 5 °C 1006 hPa NW 3.2 km/h 3.2 km/h 33% 0 mm 0.0 W/m2
00:31 21.9 °C 4.9 °C 1006 hPa Calm   3.2 km/h 33% 0 mm 0.0 W/m2
00:36 21.9 °C 5.3 °C 1006 hPa NW 3.2 km/h 3.2 km/h 34% 0 mm 0.0 W/m2
00:41 21.9 °C 5.3 °C 1006 hPa Calm   4.8 km/h 34% 0 mm 0.0 W/m2
00:46 21.8 °C 5.7 °C 1006 hPa Calm   3.2 km/h 35% 0 mm 0.0 W/m2
00:51 21.8 °C 5.7 °C 1006 hPa Calm   4.8 km/h 35% 0 mm 0.0 W/m2
00:56 21.7 °C 5.6 °C 1006 hPa WNW 1.4 km/h 1.6 km/h 35% 0 mm 0.0 W/m2
01:02 21.7 °C 5.6 °C 1006 hPa Calm     35% 0 mm 0.0 W/m2
01:07 21.6 °C 5.5 °C 1006 hPa Calm     35% 0 mm 0.0 W/m2
01:12 21.4 °C 5.3 °C 1006.3 hPa Calm   1.6 km/h 35% 0 mm 0.0 W/m2
01:17 21.3 °C 5.6 °C 1006 hPa Calm   1.6 km/h 36% 0 mm 0.0 W/m2
01:22 21.2 °C 5.5 °C 1006 hPa Calm     36% 0 mm 0.0 W/m2
01:27 21.2 °C 5.9 °C 1005.6 hPa Calm     37% 0 mm 0.0 W/m2
01:32 21.1 °C 5.8 °C 1005.6 hPa Calm     37% 0 mm 0.0 W/m2
01:37 20.9 °C 5.7 °C 1005.6 hPa Calm   1.6 km/h 37% 0 mm 0.0 W/m2
01:42 20.8 °C 6 °C 1005.6 hPa Calm     38% 0 mm 0.0 W/m2
01:47 20.7 °C 5.9 °C 1005.6 hPa Calm     38% 0 mm 0.0 W/m2
01:52 20.6 °C 6.2 °C 1005.6 hPa Calm   1.6 km/h 39% 0 mm 0.0 W/m2
01:57 20.4 °C 6 °C 1005.3 hPa Calm   1.6 km/h 39% 0 mm 0.0 W/m2
02:02 20.3 °C 5.9 °C 1005.6 hPa Calm     39% 0 mm 0.0 W/m2
02:07 20.2 °C 6.2 °C 1005.6 hPa Calm     40% 0 mm 0.0 W/m2
02:13 20.1 °C 6.1 °C 1005.3 hPa Calm   1.6 km/h 40% 0 mm 0.0 W/m2
02:18 19.9 °C 5.9 °C 1005.3 hPa Calm     40% 0 mm 0.0 W/m2
02:23 19.7 °C 5.7 °C 1005 hPa Calm     40% 0 mm 0.0 W/m2
02:28 19.5 °C 5.5 °C 1005 hPa Calm   1.6 km/h 40% 0 mm 0.0 W/m2
02:33 19.4 °C 5.8 °C 1005 hPa Calm     41% 0 mm 0.0 W/m2
02:38 19.2 °C 5.6 °C 1005 hPa SSE 1.4 km/h 4.8 km/h 41% 0 mm 0.0 W/m2
02:43 19.2 °C 5.6 °C 1005 hPa Calm   3.2 km/h 41% 0 mm 0.0 W/m2
02:48 19.2 °C 5.6 °C 1005 hPa Calm     41% 0 mm 0.0 W/m2
02:54 19.2 °C 5.6 °C 1004.6 hPa Calm   1.6 km/h 41% 0 mm 0.0 W/m2
02:59 19.1 °C 5.9 °C 1004.6 hPa Calm   3.2 km/h 42% 0 mm 0.0 W/m2
03:05 19 °C 5.8 °C 1004.6 hPa Calm   1.6 km/h 42% 0 mm 0.0 W/m2
03:10 18.9 °C 5.7 °C 1004.6 hPa Calm   1.6 km/h 42% 0 mm 0.0 W/m2
03:15 18.9 °C 6 °C 1004.6 hPa Calm     43% 0 mm 0.0 W/m2
03:20 18.8 °C 6 °C 1004.3 hPa Calm     43% 0 mm 0.0 W/m2
03:25 18.8 °C 6 °C 1004.3 hPa Calm     43% 0 mm 0.0 W/m2
03:30 18.7 °C 5.9 °C 1004.3 hPa Calm     43% 0 mm 0.0 W/m2
03:36 18.7 °C 5.9 °C 1004.3 hPa SE 3.2 km/h 3.2 km/h 43% 0 mm 0.0 W/m2
03:41 18.7 °C 5.9 °C 1003.9 hPa Calm   3.2 km/h 43% 0 mm 0.0 W/m2
03:47 18.7 °C 5.9 °C 1003.9 hPa SSE 3.2 km/h 3.2 km/h 43% 0 mm 0.0 W/m2
03:52 18.8 °C 6 °C 1003.9 hPa Calm     43% 0 mm 0.0 W/m2
03:57 18.8 °C 6 °C 1003.9 hPa Calm     43% 0 mm 0.0 W/m2
04:02 18.8 °C 6 °C 1004.3 hPa Calm     43% 0 mm 0.0 W/m2
04:07 18.8 °C 6 °C 1003.9 hPa Calm     43% 0 mm 0.0 W/m2
04:12 18.8 °C 6 °C 1003.9 hPa Calm   6.4 km/h 43% 0 mm 0.0 W/m2
04:17 18.7 °C 5.9 °C 1003.9 hPa Calm     43% 0 mm 0.0 W/m2
04:23 18.7 °C 6.2 °C 1003.9 hPa SE 1.4 km/h 1.6 km/h 44% 0 mm 0.0 W/m2
04:28 18.7 °C 6.2 °C 1003.9 hPa Calm   4.8 km/h 44% 0 mm 0.0 W/m2
04:33 18.6 °C 6.4 °C 1003.6 hPa Calm   1.6 km/h 45% 0 mm 0.0 W/m2
04:38 18.6 °C 6.4 °C 1003.9 hPa Calm     45% 0 mm 0.0 W/m2
04:43 18.6 °C 6.4 °C 1003.9 hPa Calm   1.6 km/h 45% 0 mm 0.0 W/m2
04:48 18.5 °C 6.3 °C 1003.9 hPa Calm     45% 0 mm 0.0 W/m2
04:53 18.4 °C 6.6 °C 1003.9 hPa Calm     46% 0 mm 0.0 W/m2
04:58 18.4 °C 6.6 °C 1003.9 hPa Calm     46% 0 mm 0.0 W/m2
05:03 18.3 °C 6.5 °C 1003.9 hPa Calm     46% 0 mm 0.0 W/m2
05:08 18.2 °C 6.4 °C 1003.9 hPa Calm   1.6 km/h 46% 0 mm 0.0 W/m2
05:13 18.2 °C 6.4 °C 1003.9 hPa SE 1.4 km/h 3.2 km/h 46% 0 mm 0.0 W/m2
05:19 18.2 °C 6.4 °C 1003.9 hPa SE 1.4 km/h 4.8 km/h 46% 0 mm 0.0 W/m2
05:24 18.2 °C 6.4 °C 1003.9 hPa Calm   1.6 km/h 46% 0 mm 0.0 W/m2
05:29 18.2 °C 6.4 °C 1003.9 hPa Calm   3.2 km/h 46% 0 mm 0.0 W/m2
05:34 18.2 °C 6.4 °C 1003.9 hPa SE 1.4 km/h 4.8 km/h 46% 0 mm 0.0 W/m2
05:39 18.2 °C 6.4 °C 1003.9 hPa Calm   1.6 km/h 46% 0 mm 0.0 W/m2
05:44 18.2 °C 6.7 °C 1003.9 hPa Calm     47% 0 mm 0.0 W/m2
05:49 18.2 °C 6.7 °C 1003.9 hPa Calm     47% 0 mm 0.0 W/m2
05:54 18.3 °C 6.8 °C 1004.3 hPa SE 1.4 km/h 1.6 km/h 47% 0 mm 0.0 W/m2
06:00 18.3 °C 6.8 °C 1004.3 hPa Calm   3.2 km/h 47% 0 mm 0.0 W/m2
06:05 18.3 °C 6.8 °C 1004.3 hPa Calm   1.6 km/h 47% 0 mm 0.0 W/m2
06:10 18.2 °C 6.7 °C 1004.3 hPa Calm   3.2 km/h 47% 0 mm 0.0 W/m2
06:15 18.1 °C 6.9 °C 1004.3 hPa East 1.4 km/h 3.2 km/h 48% 0 mm 0.0 W/m2
06:20 18.1 °C 6.9 °C 1004.3 hPa Calm     48% 0 mm 0.0 W/m2
06:25 18 °C 7.1 °C 1004.3 hPa Calm   1.6 km/h 49% 0 mm 0.0 W/m2
06:30 17.9 °C 7 °C 1004.3 hPa Calm   1.6 km/h 49% 0 mm 0.0 W/m2
06:35 17.9 °C 7 °C 1004.6 hPa Calm   4.8 km/h 49% 0 mm 7.0 W/m2
06:40 17.9 °C 7.3 °C 1004.6 hPa Calm     50% 0 mm 11.0 W/m2
06:46 17.9 °C 7.3 °C 1004.6 hPa Calm     50% 0 mm 14.0 W/m2
06:51 17.9 °C 7.6 °C 1004.6 hPa NE 1.4 km/h 1.6 km/h 51% 0 mm 26.0 W/m2
06:56 18 °C 7.7 °C 1004.6 hPa Calm   1.6 km/h 51% 0 mm 28.0 W/m2
07:01 18.1 °C 8.1 °C 1004.6 hPa East 3.2 km/h 3.2 km/h 52% 0 mm 32.0 W/m2
07:06 18.2 °C 7.9 °C 1005 hPa ESE 1.4 km/h 3.2 km/h 51% 0 mm 32.0 W/m2
07:11 18.3 °C 8 °C 1005 hPa Calm   1.6 km/h 51% 0 mm 40.0 W/m2
07:16 18.4 °C 8.1 °C 1005 hPa Calm     51% 0 mm 49.0 W/m2
07:21 18.6 °C 8.6 °C 1005 hPa Calm   1.6 km/h 52% 0 mm 54.0 W/m2
07:27 18.7 °C 8.6 °C 1005 hPa Calm   1.6 km/h 52% 0 mm 65.0 W/m2
07:32 18.9 °C 8.8 °C 1005 hPa Calm   1.6 km/h 52% 0 mm 67.0 W/m2
07:37 19.1 °C 9.3 °C 1005 hPa Calm   1.6 km/h 53% 0 mm 72.0 W/m2
07:42 19.3 °C 9.2 °C 1005 hPa Calm   1.6 km/h 52% 0 mm 81.0 W/m2
07:47 19.4 °C 9.3 °C 1005 hPa Calm   3.2 km/h 52% 0 mm 88.0 W/m2
07:52 19.7 °C 9.3 °C 1005 hPa Calm   3.2 km/h 51% 0 mm 104.0 W/m2
07:57 19.9 °C 9.5 °C 1005 hPa Calm     51% 0 mm 118.0 W/m2
08:02 20.1 °C 9.6 °C 1005 hPa Calm     51% 0 mm 135.0 W/m2
08:08 20.4 °C 9.9 °C 1005 hPa Calm     51% 0 mm 141.0 W/m2
08:13 20.6 °C 9.5 °C 1005 hPa Calm     49% 0 mm 165.0 W/m2
08:18 20.8 °C 9.4 °C 1005 hPa Calm     48% 0 mm 162.0 W/m2
08:23 21.1 °C 9.3 °C 1005 hPa Calm     47% 0 mm 271.0 W/m2
08:28 21.5 °C 8.4 °C 1005 hPa Calm     43% 0 mm 454.0 W/m2
08:33 22.2 °C 7.2 °C 1004.6 hPa Calm   1.6 km/h 38% 0 mm 461.0 W/m2
08:38 22.8 °C 7.3 °C 1004.6 hPa SSW 7.9 km/h 11.3 km/h 37% 0 mm 476.0 W/m2
08:43 23.6 °C 5.5 °C 1004.6 hPa SSW 1.4 km/h 3.2 km/h 31% 0 mm 496.0 W/m2
08:49 24.2 °C 6 °C 1004.6 hPa SSE 11.1 km/h 11.3 km/h 31% 0 mm 526.0 W/m2
08:54 24.8 °C 5.6 °C 1004.6 hPa WSW 3.2 km/h 9.7 km/h 29% 0 mm 545.0 W/m2
08:59 25.3 °C 5.5 °C 1005 hPa South 4.7 km/h 6.4 km/h 28% 0 mm 573.0 W/m2
09:04 25.8 °C 5.4 °C 1005 hPa WSW 11.1 km/h 12.9 km/h 27% 0 mm 596.0 W/m2
09:09 26.4 °C 5.9 °C 1005 hPa SSW 1.4 km/h 9.7 km/h 27% 0 mm 615.0 W/m2
09:14 26.8 °C 5.7 °C 1005 hPa SW 6.4 km/h 6.4 km/h 26% 0 mm 617.0 W/m2
09:19 26.9 °C 5.2 °C 1005 hPa WSW 1.4 km/h 3.2 km/h 25% 0 mm 640.0 W/m2
09:24 27.1 °C 5.9 °C 1005 hPa Calm   8 km/h 26% 0 mm 654.0 W/m2
09:29 27.3 °C 6.1 °C 1005 hPa SSE 13 km/h 13 km/h 26% 0 mm 680.0 W/m2
09:35 27.6 °C 6.4 °C 1005 hPa South 9.7 km/h 12.9 km/h 26% 0 mm 708.0 W/m2
09:40 27.8 °C 6 °C 1005 hPa SE 3.2 km/h 6.4 km/h 25% 0 mm 721.0 W/m2
09:45 28 °C 5.5 °C 1005 hPa Calm   6.4 km/h 24% 0 mm 728.0 W/m2
09:50 28.2 °C 6.3 °C 1005 hPa Calm   8 km/h 25% 0 mm 731.0 W/m2
09:55 28.4 °C 5.9 °C 1005 hPa SW 1.4 km/h 3.2 km/h 24% 0 mm 759.0 W/m2
10:00 28.5 °C 6.6 °C 1005 hPa SW 1.4 km/h 8 km/h 25% 0 mm 789.0 W/m2
10:06 28.6 °C 6.1 °C 1005 hPa SW 3.2 km/h 8 km/h 24% 0 mm 882.0 W/m2
10:11 28.6 °C 5.4 °C 1005 hPa Calm   1.6 km/h 23% 0 mm 893.0 W/m2
10:16 28.7 °C 6.1 °C 1005 hPa South 6.4 km/h 12.9 km/h 24% 0 mm 694.0 W/m2
10:21 28.8 °C 5.6 °C 1005 hPa SW 3.2 km/h 8 km/h 23% 0 mm 805.0 W/m2
10:27 28.9 °C 5.7 °C 1005 hPa Calm   4.8 km/h 23% 0 mm 475.0 W/m2
10:32 29.1 °C 5.9 °C 1005 hPa NNW 14.5 km/h 14.5 km/h 23% 0 mm 329.0 W/m2
10:37 29.4 °C 6.1 °C 1005 hPa North 4.7 km/h 11.3 km/h 23% 0 mm 396.0 W/m2
10:42 29.5 °C 6.2 °C 1005 hPa North 3.2 km/h 9.7 km/h 23% 0 mm 309.0 W/m2
10:47 29.2 °C 5.9 °C 1005 hPa NNE 11.1 km/h 11.3 km/h 23% 0 mm 311.0 W/m2
10:52 28.8 °C 6.2 °C 1005 hPa NE 6.4 km/h 8 km/h 24% 0 mm 353.0 W/m2
10:57 28.7 °C 6.1 °C 1005 hPa Calm   3.2 km/h 24% 0 mm 396.0 W/m2
11:02 28.8 °C 6.2 °C 1005 hPa NE 4.7 km/h 9.7 km/h 24% 0 mm 345.0 W/m2
11:07 28.9 °C 6.3 °C 1004.6 hPa NE 3.2 km/h 8 km/h 24% 0 mm 348.0 W/m2
11:13 29 °C 6.4 °C 1005 hPa Calm   3.2 km/h 24% 0 mm 327.0 W/m2
11:18 29.1 °C 6.5 °C 1004.6 hPa NE 4.7 km/h 8 km/h 24% 0 mm 323.0 W/m2
11:23 29.1 °C 5.9 °C 1004.6 hPa Calm   8 km/h 23% 0 mm 309.0 W/m2
11:28 29.1 °C 5.9 °C 1004.6 hPa Calm   8 km/h 23% 0 mm 334.0 W/m2
11:33 29.1 °C 5.9 °C 1004.6 hPa NNW 11.1 km/h 16.1 km/h 23% 0 mm 325.0 W/m2
11:38 29.1 °C 5.9 °C 1004.6 hPa North 4.7 km/h 16.1 km/h 23% 0 mm 455.0 W/m2
11:43 29.2 °C 5.9 °C 1004.6 hPa East 3.2 km/h 9.7 km/h 23% 0 mm 476.0 W/m2
11:48 29.6 °C 6.9 °C 1004.6 hPa Calm   6.4 km/h 24% 0 mm 1429.0 W/m2
11:53 30.2 °C 6.1 °C 1004.6 hPa East 1.4 km/h 14.5 km/h 22% 0 mm 700.0 W/m2
11:59 30.4 °C 5.6 °C 1004.6 hPa NE 4.7 km/h 17.7 km/h 21% 0 mm 536.0 W/m2
12:04 30.5 °C 6.4 °C 1004.6 hPa NNE 9.7 km/h 9.7 km/h 22% 0 mm 432.0 W/m2
12:09 30.5 °C 6.4 °C 1004.6 hPa Calm   11.3 km/h 22% 0 mm 476.0 W/m2
12:14 30.5 °C 5.7 °C 1004.6 hPa North 1.4 km/h 19.3 km/h 21% 0 mm 520.0 W/m2
12:19 30.6 °C 6.5 °C 1004.6 hPa North 7.9 km/h 16.1 km/h 22% 0 mm 1348.0 W/m2
12:24 30.9 °C 6 °C 1004.3 hPa East 4.7 km/h 12.9 km/h 21% 0 mm 519.0 W/m2
12:29 30.8 °C 6 °C 1004.3 hPa South 3.2 km/h 12.9 km/h 21% 0 mm 397.0 W/m2
12:34 30.7 °C 5.9 °C 1004.3 hPa Calm   4.8 km/h 21% 0 mm 390.0 W/m2
12:39 30.7 °C 6.5 °C 1004.3 hPa North 6.4 km/h 9.7 km/h 22% 0 mm 401.0 W/m2
12:45 30.7 °C 6.5 °C 1004.3 hPa North 4.7 km/h 9.7 km/h 22% 0 mm 401.0 W/m2
12:51 30.7 °C 6.5 °C 1003.9 hPa NW 4.7 km/h 4.8 km/h 22% 0 mm 429.0 W/m2
12:56 30.7 °C 6.5 °C 1003.9 hPa Calm   16.1 km/h 22% 0 mm 429.0 W/m2
13:01 30.7 °C 6.5 °C 1003.9 hPa NNW 3.2 km/h 11.3 km/h 22% 0 mm 403.0 W/m2
13:06 30.7 °C 6.5 °C 1003.9 hPa WNW 1.4 km/h 8 km/h 22% 0 mm 383.0 W/m2
13:11 30.6 °C 6.5 °C 1003.9 hPa Calm   11.3 km/h 22% 0 mm 378.0 W/m2
13:17 30.4 °C 6.9 °C 1003.9 hPa Calm   6.4 km/h 23% 0 mm 439.0 W/m2
13:22 30.6 °C 6.5 °C 1003.6 hPa Calm   9.7 km/h 22% 0 mm 561.0 W/m2
13:27 30.8 °C 6.6 °C 1003.6 hPa Calm   1.6 km/h 22% 0 mm 596.0 W/m2
13:32 30.9 °C 6.7 °C 1003.6 hPa SE 1.4 km/h 3.2 km/h 22% 0 mm 492.0 W/m2
13:38 31.3 °C 7 °C 1003.3 hPa NW 1.4 km/h 9.7 km/h 22% 0 mm 517.0 W/m2
13:43 31.7 °C 6.7 °C 1003.3 hPa Calm   6.4 km/h 21% 0 mm 452.0 W/m2
13:48 31.5 °C 6.5 °C 1003.3 hPa SW 6.4 km/h 12.9 km/h 21% 0 mm 432.0 W/m2
13:53 31 °C 6.1 °C 1003.3 hPa Calm   3.2 km/h 21% 0 mm 348.0 W/m2
13:58 30.8 °C 7.3 °C 1003.3 hPa Calm   1.6 km/h 23% 0 mm 353.0 W/m2
14:03 30.8 °C 6.6 °C 1002.9 hPa Calm   9.7 km/h 22% 0 mm 362.0 W/m2
14:08 30.8 °C 6.6 °C 1002.9 hPa North 7.9 km/h 9.7 km/h 22% 0 mm 309.0 W/m2
14:13 30.8 °C 6 °C 1002.9 hPa NNE 4.7 km/h 16.1 km/h 21% 0 mm 406.0 W/m2
14:18 30.9 °C 6.7 °C 1002.9 hPa North 4.7 km/h 4.8 km/h 22% 0 mm 1329.0 W/m2
14:23 31.3 °C 6.4 °C 1002.9 hPa WSW 3.2 km/h 4.8 km/h 21% 0 mm 1215.0 W/m2
14:29 31 °C 6.1 °C 1002.9 hPa Calm   6.4 km/h 21% 0 mm 526.0 W/m2
14:34 30.8 °C 6.6 °C 1002.9 hPa South 6.4 km/h 9.7 km/h 22% 0 mm 543.0 W/m2
14:39 30.9 °C 6.7 °C 1002.6 hPa West 1.4 km/h 4.8 km/h 22% 0 mm 513.0 W/m2
14:44 31.1 °C 6.9 °C 1002.9 hPa NW 3.2 km/h 4.8 km/h 22% 0 mm 322.0 W/m2
14:49 31.2 °C 7 °C 1002.6 hPa ENE 3.2 km/h 11.3 km/h 22% 0 mm 318.0 W/m2
14:54 31.2 °C 6.3 °C 1002.6 hPa Calm   11.3 km/h 21% 0 mm 434.0 W/m2
14:59 31.3 °C 6.4 °C 1002.6 hPa NNE 1.4 km/h 8 km/h 21% 0 mm 497.0 W/m2
15:04 31.8 °C 6.8 °C 1002.3 hPa NE 7.9 km/h 8 km/h 21% 0 mm 1267.0 W/m2
15:09 32.4 °C 6.6 °C 1002.3 hPa North 1.4 km/h 4.8 km/h 20% 0 mm 1125.0 W/m2
15:15 32.8 °C 6.9 °C 1002.3 hPa WNW 1.4 km/h 8 km/h 20% 0 mm 406.0 W/m2
15:20 32.9 °C 7 °C 1002.3 hPa Calm   4.8 km/h 20% 0 mm 418.0 W/m2
15:25 32.8 °C 6.9 °C 1001.9 hPa Calm   4.8 km/h 20% 0 mm 568.0 W/m2
15:30 32.8 °C 6.9 °C 1001.9 hPa West 7.9 km/h 8 km/h 20% 0 mm 380.0 W/m2
15:35 32.7 °C 6.8 °C 1001.9 hPa Calm   3.2 km/h 20% 0 mm 441.0 W/m2
15:40 32.7 °C 6.8 °C 1001.9 hPa Calm   3.2 km/h 20% 0 mm 476.0 W/m2
15:45 32.7 °C 6.8 °C 1001.9 hPa Calm   1.6 km/h 20% 0 mm 415.0 W/m2
15:50 32.6 °C 6.7 °C 1001.9 hPa WSW 3.2 km/h 12.9 km/h 20% 0 mm 566.0 W/m2
15:56 32.4 °C 6.6 °C 1001.6 hPa SW 3.2 km/h 8 km/h 20% 0 mm 420.0 W/m2
16:01 32.4 °C 7.3 °C 1001.6 hPa WNW 3.2 km/h 4.8 km/h 21% 0 mm 417.0 W/m2
16:06 32.3 °C 6.5 °C 1001.6 hPa WSW 4.7 km/h 6.4 km/h 20% 0 mm 329.0 W/m2
16:11 31.8 °C 6.8 °C 1001.6 hPa WSW 1.4 km/h 6.4 km/h 21% 0 mm 320.0 W/m2
16:16 31.6 °C 6.6 °C 1001.6 hPa WSW 6.4 km/h 9.7 km/h 21% 0 mm 976.0 W/m2
16:21 31.9 °C 6.9 °C 1001.6 hPa West 4.7 km/h 9.7 km/h 21% 0 mm 640.0 W/m2
16:26 32.1 °C 7 °C 1001.2 hPa SSW 4.7 km/h 4.8 km/h 21% 0 mm 617.0 W/m2
16:31 32.2 °C 6.4 °C 1001.2 hPa NW 4.7 km/h 6.4 km/h 20% 0 mm 288.0 W/m2
16:37 32.3 °C 6.5 °C 1001.2 hPa North 6.4 km/h 14.5 km/h 20% 0 mm 246.0 W/m2
16:42 32.1 °C 6.3 °C 1001.2 hPa NNW 1.4 km/h 6.4 km/h 20% 0 mm 234.0 W/m2
16:47 32 °C 6.9 °C 1001.2 hPa Calm   9.7 km/h 21% 0 mm 250.0 W/m2
16:52 31.9 °C 6.9 °C 1001.2 hPa WSW 3.2 km/h 9.7 km/h 21% 0 mm 487.0 W/m2
16:57 31.8 °C 6.8 °C 1000.9 hPa Calm   3.2 km/h 21% 0 mm 278.0 W/m2
17:02 32.1 °C 6.3 °C 1000.9 hPa NW 1.4 km/h 11.3 km/h 20% 0 mm 686.0 W/m2
17:07 32.6 °C 6.7 °C 1000.9 hPa Calm   11.3 km/h 20% 0 mm 642.0 W/m2
17:12 32.7 °C 6.8 °C 1000.9 hPa Calm   14.5 km/h 20% 0 mm 606.0 W/m2
17:17 33.1 °C 7.1 °C 1000.9 hPa WSW 1.4 km/h 8 km/h 20% 0 mm 591.0 W/m2
17:22 33.5 °C 6.7 °C 1000.9 hPa WNW 1.4 km/h 6.4 km/h 19% 0 mm 589.0 W/m2
17:28 33.8 °C 7 °C 1000.9 hPa NNW 3.2 km/h 6.4 km/h 19% 0 mm 545.0 W/m2
17:33 33.9 °C 6.3 °C 1000.9 hPa NW 1.4 km/h 11.3 km/h 18% 0 mm 512.0 W/m2
17:38 33.8 °C 7 °C 1000.9 hPa WNW 3.2 km/h 8 km/h 19% 0 mm 476.0 W/m2
17:43 33.5 °C 6.7 °C 1000.9 hPa SW 1.4 km/h 11.3 km/h 19% 0 mm 137.0 W/m2
17:48 32.8 °C 6.1 °C 1000.9 hPa WSW 6.4 km/h 14.5 km/h 19% 0 mm 445.0 W/m2
17:53 32.4 °C 6.6 °C 1000.9 hPa Calm   4.8 km/h 20% 0 mm 93.0 W/m2
17:58 32.1 °C 6.3 °C 1000.9 hPa Calm   8 km/h 20% 0 mm 84.0 W/m2
18:03 31.7 °C 6 °C 1000.9 hPa North 3.2 km/h 3.2 km/h 20% 0 mm 98.0 W/m2
18:08 31.5 °C 6.5 °C 1000.9 hPa West 1.4 km/h 4.8 km/h 21% 0 mm 211.0 W/m2
18:13 31.6 °C 5.9 °C 1000.9 hPa Calm   11.3 km/h 20% 0 mm 169.0 W/m2
18:18 31.6 °C 5.9 °C 1001.2 hPa West 4.7 km/h 11.3 km/h 20% 0 mm 141.0 W/m2
18:24 31.5 °C 5.8 °C 1001.2 hPa NNW 3.2 km/h 4.8 km/h 20% 0 mm 251.0 W/m2
18:29 31.7 °C 6 °C 1001.2 hPa WNW 4.7 km/h 6.4 km/h 20% 0 mm 102.0 W/m2
18:34 31.7 °C 6 °C 1001.2 hPa West 3.2 km/h 4.8 km/h 20% 0 mm 225.0 W/m2
18:39 31.8 °C 6.1 °C 1001.2 hPa Calm   1.6 km/h 20% 0 mm 199.0 W/m2
18:45 31.9 °C 6.1 °C 1001.2 hPa WSW 1.4 km/h 8 km/h 20% 0 mm 163.0 W/m2
18:50 31.8 °C 6.1 °C 1001.2 hPa Calm   1.6 km/h 20% 0 mm 132.0 W/m2
18:55 31.6 °C 5.2 °C 1001.2 hPa WSW 3.2 km/h 12.9 km/h 19% 0 mm 63.0 W/m2
19:00 31.3 °C 4.9 °C 1001.6 hPa WSW 4.7 km/h 6.4 km/h 19% 0 mm 53.0 W/m2
19:05 30.8 °C 2.9 °C 1001.6 hPa West 4.7 km/h 16.1 km/h 17% 0 mm 39.0 W/m2
19:10 30.4 °C 2.6 °C 1001.6 hPa WSW 3.2 km/h 14.5 km/h 17% 0 mm 32.0 W/m2
19:16 30.1 °C 3.2 °C 1001.6 hPa WSW 13 km/h 14.5 km/h 18% 0 mm 30.0 W/m2
19:21 29.8 °C 2.9 °C 1001.6 hPa West 3.2 km/h 14.5 km/h 18% 0 mm 28.0 W/m2
19:26 29.7 °C 2.8 °C 1001.6 hPa Calm   9.7 km/h 18% 0 mm 23.0 W/m2
19:31 29.5 °C 2.7 °C 1001.9 hPa SSW 9.7 km/h 19.3 km/h 18% 0 mm 19.0 W/m2
19:36 29.2 °C 2.4 °C 1001.9 hPa SW 11.1 km/h 17.7 km/h 18% 0 mm 16.0 W/m2
19:41 28.8 °C 2.9 °C 1002.3 hPa West 13 km/h 22.5 km/h 19% 0 mm 9.0 W/m2
19:46 28.2 °C 3.1 °C 1002.3 hPa WSW 17.7 km/h 17.7 km/h 20% 0 mm 0.0 W/m2
19:51 27.7 °C 4 °C 1002.3 hPa WSW 3.2 km/h 12.9 km/h 22% 0 mm 0.0 W/m2
19:56 27.4 °C 3.8 °C 1002.6 hPa South 6.4 km/h 11.3 km/h 22% 0 mm 0.0 W/m2
20:01 27.2 °C 3.6 °C 1002.6 hPa SW 11.1 km/h 16.1 km/h 22% 0 mm 0.0 W/m2
20:07 26.9 °C 4 °C 1002.6 hPa SSW 11.1 km/h 12.9 km/h 23% 0 mm 0.0 W/m2
20:12 26.7 °C 3.8 °C 1002.6 hPa SSW 6.4 km/h 12.9 km/h 23% 0 mm 0.0 W/m2
20:17 26.4 °C 3.6 °C 1002.9 hPa SSE 4.7 km/h 16.1 km/h 23% 0 mm 0.0 W/m2
20:22 26.3 °C 4.1 °C 1003.3 hPa SSW 3.2 km/h 14.5 km/h 24% 0 mm 0.0 W/m2
20:27 26.1 °C 4 °C 1003.3 hPa SW 4.7 km/h 14.5 km/h 24% 0 mm 0.0 W/m2
20:32 25.9 °C 3.8 °C 1003.3 hPa SW 6.4 km/h 9.7 km/h 24% 0 mm 0.0 W/m2
20:37 25.8 °C 3.7 °C 1003.6 hPa South 3.2 km/h 9.7 km/h 24% 0 mm 0.0 W/m2
20:42 25.6 °C 3.5 °C 1003.6 hPa SSW 1.4 km/h 12.9 km/h 24% 0 mm 0.0 W/m2
20:47 25.4 °C 3.4 °C 1003.6 hPa SSW 6.4 km/h 14.5 km/h 24% 0 mm 0.0 W/m2
20:52 25.3 °C 3.3 °C 1003.6 hPa SSE 13 km/h 17.7 km/h 24% 0 mm 0.0 W/m2
20:58 25.2 °C 3.2 °C 1003.6 hPa Calm   4.8 km/h 24% 0 mm 0.0 W/m2
21:03 25.1 °C 3.1 °C 1003.6 hPa WSW 3.2 km/h 11.3 km/h 24% 0 mm 0.0 W/m2
21:08 25 °C 3 °C 1003.9 hPa SW 3.2 km/h 11.3 km/h 24% 0 mm 0.0 W/m2
21:13 24.8 °C 2.9 °C 1003.9 hPa Calm   1.6 km/h 24% 0 mm 0.0 W/m2
21:19 24.7 °C 3.3 °C 1003.9 hPa West 1.4 km/h 4.8 km/h 25% 0 mm 0.0 W/m2
21:24 24.5 °C 3.2 °C 1003.9 hPa WSW 1.4 km/h 1.6 km/h 25% 0 mm 0.0 W/m2
21:29 24.4 °C 3.1 °C 1003.9 hPa West 4.7 km/h 4.8 km/h 25% 0 mm 0.0 W/m2
21:34 24.2 °C 2.9 °C 1003.9 hPa Calm   9.7 km/h 25% 0 mm 0.0 W/m2
21:39 24.2 °C 2.9 °C 1003.9 hPa Calm   11.3 km/h 25% 0 mm 0.0 W/m2
21:44 24.2 °C 3.5 °C 1004.3 hPa Calm   1.6 km/h 26% 0 mm 0.0 W/m2
21:50 24.1 °C 3.4 °C 1004.3 hPa Calm     26% 0 mm 0.0 W/m2
21:55 24.1 °C 3.4 °C 1004.3 hPa Calm   1.6 km/h 26% 0 mm 0.0 W/m2
22:00 23.9 °C 3.2 °C 1004.3 hPa Calm     26% 0 mm 0.0 W/m2
22:05 23.8 °C 3.7 °C 1004.3 hPa Calm     27% 0 mm 0.0 W/m2
22:10 23.7 °C 3.6 °C 1004.3 hPa Calm   1.6 km/h 27% 0 mm 0.0 W/m2
22:15 23.6 °C 3.5 °C 1004.3 hPa Calm   3.2 km/h 27% 0 mm 0.0 W/m2
22:20 23.4 °C 3.3 °C 1004.3 hPa SW 3.2 km/h 4.8 km/h 27% 0 mm 0.0 W/m2
22:25 23.4 °C 3.3 °C 1004.3 hPa Calm     27% 0 mm 0.0 W/m2
22:31 23.3 °C 3.8 °C 1004.3 hPa Calm     28% 0 mm 0.0 W/m2
22:37 23.2 °C 3.7 °C 1004.3 hPa Calm   1.6 km/h 28% 0 mm 0.0 W/m2
22:42 23.1 °C 3.6 °C 1004.3 hPa Calm     28% 0 mm 0.0 W/m2
22:47 22.9 °C 3.4 °C 1004.6 hPa Calm     28% 0 mm 0.0 W/m2
22:52 22.8 °C 3.8 °C 1004.6 hPa Calm     29% 0 mm 0.0 W/m2
22:59 22.5 °C 4.1 °C 1004.6 hPa Calm     30% 0 mm 0.0 W/m2
23:05 22.3 °C 3.9 °C 1004.6 hPa Calm     30% 0 mm 0.0 W/m2
23:10 22.2 °C 3.8 °C 1004.6 hPa Calm     30% 0 mm 0.0 W/m2
23:16 22 °C 3.6 °C 1004.6 hPa Calm     30% 0 mm 0.0 W/m2
23:21 21.8 °C 3.5 °C 1004.6 hPa Calm   3.2 km/h 30% 0 mm 0.0 W/m2
23:26 21.8 °C 3.5 °C 1005 hPa SE 1.4 km/h 4.8 km/h 30% 0 mm 0.0 W/m2
23:31 21.8 °C 3.5 °C 1005 hPa SE 1.4 km/h 4.8 km/h 30% 0 mm 0.0 W/m2
23:36 21.8 °C 3.5 °C 1005 hPa SSE 3.2 km/h 4.8 km/h 30% 0 mm 0.0 W/m2
23:41 21.8 °C 3.5 °C 1005 hPa SE 1.4 km/h 4.8 km/h 30% 0 mm 0.0 W/m2
23:46 21.8 °C 3.5 °C 1005 hPa Calm   4.8 km/h 30% 0 mm 0.0 W/m2
23:51 21.7 °C 3.4 °C 1005 hPa Calm   1.6 km/h 30% 0 mm 0.0 W/m2
23:57 21.7 °C 3.4 °C 1004.6 hPa Calm   1.6 km/h 30% 0 mm 0.0 W/m2
Olympia, Windhoek, Namibia
Compliments of Weather Underground - 3.25 mb